{"data":{"norad_id":58790,"epoch":"2026-09-19T23:09:35.567136Z","epoch_age_seconds":198819,"freshness":"STALE","line1":"1 58790U 24012D   26262.96499499  .00000227  00000+0  17786-4 0  9998","line2":"2 58790  43.0025 148.4454 0001331 266.6147  93.4552 15.27575965150944","mean_motion":15.27575965,"eccentricity":0.0001331,"inclination_deg":43.0025,"raan_deg":148.4454,"arg_perigee_deg":266.6147,"mean_anomaly_deg":93.4552,"bstar":1.7786e-5,"rev_number":15094,"period_min":94.266997713597,"perigee_km":482.1479528303,"apogee_km":483.97440378537,"semimajor_km":6861.1981783078,"source":"CELESTRAK","updated_at":"2026-09-21T09:00:33.979338Z"}}